Regional Weather Roundup
Issued by NWS Wakefield, VA

Home | Current Version | Previous Version | Graphics & Text | Print | Product List | Glossary On
Versions: 1 2 3 4 5 6 7 8 9 10 11 12 13 14 15 16 17 18 19 20 21 22 23 24 25 26 27
000
ASUS41 KAKQ 191016
RWRAKQ

REGIONAL WEATHER ROUNDUP
NATIONAL WEATHER SERVICE WAKEFIELD VA
600 AM EDT TUE SEP 19 2017

Note: "fair" indicates few or no clouds below 12,000 feet with no
significant weather and/or obstructions to visibility. * = Denotes
station may not report precipitation (e.g., rain,snow,etc.),
thunder or fog.

VAZ042-051-052>054-056-191100-
NORTHERN VIRGINIA

CITY           SKY/WX    TMP DP  RH WIND       PRES   REMARKS
WASH NATIONAL  PTCLDY    69  66  90 N13       30.00S
DULLES         CLOUDY    67  65  93 N8        30.01F
FORT BELVOIR   CLEAR     67  64  89 NW6       29.98F
QUANTICO       CLEAR     68  66  93 MISG      29.99
FREDERICKSBRG* PTCLDY    68  68 100 N6        29.98R
STAFFORD*      PTCLDY    65  65 100 NW7       30.02F
WARRENTON      CLOUDY    69  64  84 N6        30.00F
CULPEPER*      CLOUDY    67  66  96 N7        30.02F
MANASSAS*      CLOUDY    68  65  90 N9        30.01F
LEESBURG*      CLOUDY    66  66 100 N8        30.03F FOG
WINCHESTER     CLOUDY    63  63 100 CALM      30.05S FOG
FRONT ROYAL*   CLOUDY    64  64 100 CALM      30.04S
LURAY*         FOG       61  61 100 CALM      30.04F VSB 1/2
$$

VAZ048-049-060>072-079>083-191100-
CENTRAL AND SOUTH CENTRAL VIRGINIA

CITY           SKY/WX    TMP DP  RH WIND       PRES   REMARKS
RICHMOND       MOCLDY    67  66  97 N10       29.95S
CHESTERFIELD*  NOT AVBL
PETERSBURG*    CLOUDY    67  65  93 N10       29.95S
HANOVER        MOCLDY    68  66  93 VRB6      29.97S
TAPPAHANNOCK*  PTCLDY    70  70 100 NW5       29.95S
QUINTON*       CLOUDY    67  67 100 NW9       29.93S
CHARLOTTSVILLE MOCLDY    65  64  97 N3        30.02R
GORDONSVILLE*  PTSUNNY   67  65  94 N6        30.01S
ORANGE*        PTCLDY    64  63  94 CALM      30.01S
LOUISA*        CLOUDY    66  64  94 N6        30.00S FOG
BUMPASS*       CLOUDY    67  67 100 NW8       29.99S
FARMVILLE*     PTCLDY    66  66 100 CALM      29.99R
CREWE*         CLOUDY    66  66 100 NW5       29.98S
FORT PICKETT*  CLOUDY    67  67 100 NW8       29.97S
CHASE CITY*    FAIR      64  64 100 CALM      29.99S
CLARKSVILLE*   CLOUDY    64  64 100 N5        29.98S
SOUTH HILL*    CLOUDY    66  66  99 NW6       30.02S
LAWRENCEVILLE* CLOUDY    67  65  96 NW6       29.95S
EMPORIA*       CLOUDY    64  64 100 NW9       29.94S
$$

VAZ088>098-191100-
SOUTHEAST VIRGINIA

CITY           SKY/WX    TMP DP  RH WIND       PRES   REMARKS
NORFOLK        CLOUDY    74  69  85 N21G30    29.86R
VIRGINIA BEACH CLOUDY    73  67  81 N18G26    29.83S
NORFOLK NAVAL  CLOUDY    75  68  78 N16G28    29.88R
WEST POINT*    PTCLDY    68  66  94 N3        29.93S
SALUDA*        FAIR      70  69  97 N13       29.90S
NEWPORT NEWS   PTCLDY    71  67  87 N9        29.89R
LANGLEY AFB    MOCLDY    72  68  88 N14       29.87S
FORT EUSTIS    MOCLDY    71  67  87 N10       29.87S
WILLIAMSBURG*  CLOUDY    70  68  94 N8        29.92R
HR EXEC AP*    CLOUDY    71  68  90 N7G17     29.88R
FRANKLIN*      CLOUDY    68  65  90 N9        29.90S
US460-WAKEFLD  CLOUDY    69  67  93 N7        29.91S
$$

VAZ020-022-025-037-045-191100-
WEST CENTRAL AND SOUTHWEST VIRGINIA

CITY           SKY/WX    TMP DP  RH WIND       PRES   REMARKS
STAUNTON*      CLOUDY    63  63  98 NE6       30.08R FOG
WAYNESBORO*    CLOUDY    63  63 100 CALM      30.07R
HOT SPRINGS VA FOG       60  60 100 CALM      30.13S VSB<1/4
LYNCHBURG      CLEAR     63  62  97 NW5       30.02S
DANVILLE       CLEAR     65  65 100 N7        30.00S
SOUTH BOSTON*  FAIR      64  63  95 CALM      29.99S
MARTINSVILLE   CLEAR     57  57  99 CALM      30.05S FOG
ROANOKE        PTCLDY    62  61  96 CALM      30.05S
BLACKSBURG     PTCLDY    59  59 100 E3        30.09S
DUBLIN*        FOG       60  60 100 CALM      30.09R VSB 1/2
MARION*        FOG       57  55  91 CALM      30.11S VSB 1
HILLSVILLE*    FOG       56  53  87 CALM      30.09S VSB 1/2
RICHLANDS*     FAIR      62  58  87 CALM      30.08S
WISE*          CLEAR     59  59 100 S5        30.09S
ABINGDON*      CLEAR     62  60  94 E5        30.07R
$$

MDZ021>025-VAZ099-100-191100-
SOUTHERN MARYLAND AND THE DELMARVA PENINSULA

CITY           SKY/WX    TMP DP  RH WIND       PRES   REMARKS
PATUXENT RIVER CLOUDY    71  68  90 N14       29.94R
BAY BRIDGE APT CLOUDY    72  68  88 N8        29.97S
LEONARDTOWN    CLOUDY    70  64  83 N6        29.96S
DOVER          CLOUDY    71  71 100 N15       29.92F
GEORGETOWN     MOCLDY    72  67  84 NE15      29.91F
EASTON         MOCLDY    72  66  83 N9        29.98S
CAMBRIDGE      CLOUDY    72  68  88 N9G15     29.93S
SALISBURY      MOCLDY    71  68  90 N14       29.89S
OCEAN CITY     LGT RAIN  71  69  93 NE15G29   29.87S FOG
WALLOPS ISLAND LGT RAIN  71  68  90 N15       29.87R
ACCOMACK*      CLOUDY    72  68  88 N9G22     29.87R
$$

NCZ012>017-030>032-191100-
NORTH CENTRAL AND EASTERN NORTH CAROLINA

CITY           SKY/WX    TMP DP  RH WIND       PRES   REMARKS
ROANOKE RAPIDS CLOUDY    68  66  94 MISG      29.93S
RALEIGH        MOCLDY    65  65 100 N5        29.98R
ELIZABETH CITY CLOUDY    73  69  87 N16       29.83S
AHOSKIE*         N/A     68  66  94 N7        29.91S
EDENTON*       CLOUDY    71  68  90 N14       29.86S
CURRITUCK*     CLOUDY    73  68  84 N12G21    29.84R
KILL DEVIL HLS DRIZZLE   72  67  83 N14G31    29.77S
MANTEO         CLOUDY    72  67  85 N18G31    29.79S
CAPE HATTERAS  CLOUDY    74  69  85 NW14G28   29.78R
TARBORO*       NOT AVBL
GOLDSBORO      CLEAR     69  69 100 NW6       29.92R
WASHINGTON     CLOUDY    69  66  93 N9        29.89R
GREENVILLE     PTCLDY    68  68 100 NW7       29.93R
NEW BERN       CLOUDY    70  68  93 NW9       29.89R
WILMINGTON     CLOUDY    69  67  93 NW8       29.93R
$$

VAZ048-191100-
ELSEWHERE

CITY           SKY/WX    TMP DP  RH WIND       PRES   REMARKS
HARRISBURG PA  MOCLDY    66  64  93 NW5       30.04S
BALTIMORE      MOCLDY    68  66  93 N6        29.99S
ANNAPOLIS      CLOUDY    73  70  90 N12       29.97S
ANDREWS AFB    MOCLDY    66  65  95 N9        29.98S
PHILADELPHIA   CLOUDY    71  67  87 NE14      29.99S
HENDERSON NC   MOCLDY    64  62  96 CALM      29.99R
GREENSBORO     MOCLDY    65  65 100 N5        30.01R
ROCKY MOUNT    MOCLDY    67  66  97 NW10      29.94S
$$

VAZ100-191100-
MARINE

STATION/POSITION TIME  TEMP    WIND        PRES    WAVE   SWELL
                       AIR SEA DIR/SP/G            HT/PER HT/PER
                 (UTC) (F)     (DEG/KT/KT) (MB)    (FT/S) (FT/S)
BRANDYWINE LGT   0942   73      30/ 23/ 26 1013.2S
CAPE MAY NJ      0942   71 74   30/  5/ 10 1012.3R
LEWES DE         0942   72 72   30/ 19/ 24 1012.6R
15NM E FENWICK I 0950   71 71   10/ 27/ 33 1010.1F  14/13  11/13
OCEAN-CITY-INLET 0942   72 73   30/ 14/ 26 1011.9R
WACHAPREAGUE VA  0942   71 74  350/  6/ 13 1011.0S
THOMAS POINT MD  1000   71 75  360/ 17/ 18   N/A
GOOSES REEF MD   1000   73 74   50/ 19/ 23 1014.4
COVE POINT MD    0942   71      20/ 20/ 24 1014.5R
SOLOMONS ISLAND  0942   72 76   10/ 12/ 20 1013.3R
BISHOPS HEAD MD  0942   71 74  360/ 12/ 17 1013.0R
PINEY POINT MD   0942           30/ 12/ 14   N/A
POTOMAC MD       1000   72 75   10/ 16/ 21 1012.5    1/ 2
CAMBRIDGE MD     0942   71 75              1014.2S
LEWISETTA VA     0942   72 76   20/ 12/ 18 1013.0F
RAPPAHANNOCK LGT 0942          350/ 28/ 31 1011.8R
STINGRAY PT      1000   74 76   20/ 21/ 25 1012.2    3/ 3
YORK RVR RNG VA  0942   72      10/ 19/ 23 1012.1R
YORKTOWN VA      0942   72 76  340/ 16/ 19 1011.9R
JAMESTOWN VA     1000      78  360/ 10/ 16   N/A     0
DOMINION TERM VA 0942   72      80/  3/  5 1011.8R
KIPTOPEKE VA     0942      76   10/ 14/ 19   N/A
CHES BAY BRIDGE  0942   74 75   10/ 27/ 32 1010.6R
CAPE HENRY VA    0942   73     350/ 27/ 32   N/A
WILLOUBY STN VA  0942   73     350/ 17/ 20 1011.4R
S CRANEY ISL VA  0942   73     350/ 13/ 18 1011.3R
CAPE HENRY BUOY  1000      74                N/A     9/12   5/12
1ST LANDING BUOY 1000   74 75              1010.4    6/ 5
64NM E OF VA BCH 0950   71 72  350/ 29/ 37 1005.1F  16/12  11/12
DUCK PIER NC     0942   74 75  360/ 30/ 33 1007.7S
44100 DUCK FRF   0935      74                N/A    14/13  10/13
44056 DUCK FRF   1000      76                N/A    12/13   8/13
OREGON INLET NC  0942   72 75  340/ 20/ 28 1007.8R
HATTERAS NC      0942   74 76  330/ 24/ 28 1008.3R
DIAMOND SHLS NC  0950   74 78  330/ 21/ 27 1007.1R  13/13  11/13
CAPE LOOKOUT NC  1000   71     320/ 13/ 16 1010.5R
$$




USA.gov is the U.S. government's official web portal to all federal, state and local government web resources and services.